Temp
8 5 4 2 2 1 1 1 1 -0 0 1 1 1 1 -0 -1 -1 -0 -0 0 1 1 1 1 2 2 3 3 4 5 7 6 8 12 13 13 13 14 14 15 16 15
7 5 4 3 2 2 1 1 1 0 0 1 1 1 1 -0 -1 -2 -2 -1 -1 -0 -0 0 1 1 2 2 3 3 5 5 5 7 10 15 16 14 14 14 15 16 16
6 6 3 3 2 2 1 1 0 -0 -0 -0 -0 -1 -1 -1 -0 -1 -1 -2 -2 -1 -2 -1 -0 0 1 1 2 2 3 5 5 5 7 13 15 11 13 13 14 13 14
7 6 2 1 -0 1 0 0 -1 -0 -1 -0 0 1 2 2 -0 -1 -2 -2 -2 -2 -2 -2 -1 -1 -0 0 1 1 1 3 5 5 5 5 6 11 14 13 12 11 12
4 6 3 -0 -1 -1 -1 -1 -1 -1 -1 -1 -0 0 0 -0 -1 -2 -2 -2 -2 -3 -3 -3 -2 -2 -1 -1 -1 -0 0 1 2 3 4 5 6 6 9 12 13 11 12
1 4 4 0 -2 -1 -0 -0 -0 -0 -0 -1 -1 -1 -0 -1 -1 -1 -1 -2 -2 -2 -3 -3 -3 -2 -2 -2 -1 -1 -1 -0 0 1 2 3 5 6 6 8 9 8 9
-0 2 4 1 -2 -2 -1 -1 -1 -2 -1 -1 -1 -2 -2 -2 -1 -2 -2 -2 -2 -2 -3 -3 -3 -3 -3 -3 -2 -2 -1 -1 -0 0 1 1 2 2 3 4 6 7 7
-0 1 2 1 -1 -2 -2 -1 -1 -1 -1 -1 -1 -2 -2 -3 -3 -3 -3 -3 -3 -3 -4 -4 -4 -4 -4 -3 -3 -2 -2 -2 -1 -1 -0 0 1 1 2 3 4 6 8
-1 -1 -0 -0 -2 -3 -2 -2 -1 -1 -1 -2 -2 -2 -3 -3 -4 -4 -4 -4 -4 -4 -4 -4 -4 -4 -4 -4 -4 -3 -2 -2 -2 -1 -1 -1 -0 -0 0 1 1 3 6
-0 -1 -1 -1 -2 -3 -2 -2 -2 -1 -2 -2 -2 -2 -2 -3 -3 -4 -4 -5 -5 -5 -5 -5 -5 -5 -4 -4 -4 -3 -3 -3 -2 -2 -2 -1 -1 -1 -1 -0 0 1 2
-0 -1 -1 -2 -2 -1 -1 -1 -1 -1 -1 -2 -2 -2 -2 -3 -3 -4 -5 -5 -5 -5 -5 -5 -5 -5 -5 -4 -4 -3 -3 -3 -2 -2 -2 -2 -2 -1 -1 -1 -0 0 1
-0 -1 -1 -2 -2 -2 -2 -1 -1 -1 -1 -2 -2 -2 -3 -3 -3 -4 -4 -4 -5 -5 -6 -6 -5 -5 -5 -5 -4 -4 -3 -3 -3 -2 -2 -2 -2 -2 -1 -1 -1 -0 0
0 -0 -1 -1 -2 -2 -2 -2 -2 -2 -2 -2 -2 -2 -3 -3 -3 -3 -4 -4 -4 -5 -6 -6 -5 -5 -5 -5 -5 -4 -4 -4 -3 -3 -3 -2 -2 -2 -2 -1 -1 -1 -0
-1 -1 -1 -2 -2 -2 -2 -2 -2 -2 -2 -3 -3 -3 -3 -3 -3 -3 -4 -4 -5 -5 -5 -6 -6 -6 -6 -5 -5 -5 -4 -4 -4 -3 -3 -3 -2 -2 -1 -1 -1 -1 -1
-1 -2 -2 -2 -2 -2 -2 -1 -1 -1 -2 -3 -4 -4 -3 -4 -4 -4 -4 -5 -5 -5 -6 -6 -7 -7 -6 -5 -5 -5 -4 -4 -4 -3 -3 -3 -2 -3 -2 -2 -2 -2 -2
-2 -2 -2 -2 -2 -3 -3 -3 -2 -2 -2 -3 -4 -4 -4 -4 -4 -4 -5 -5 -6 -6 -6 -6 -6 -6 -6 -6 -6 -5 -4 -4 -3 -3 -3 -3 -3 -3 -3 -2 -2 -2 -2
-2 -2 -2 -2 -2 -3 -3 -3 -3 -3 -3 -3 -4 -5 -5 -5 -5 -5 -5 -5 -6 -6 -6 -6 -6 -6 -7 -7 -6 -6 -5 -4 -4 -4 -4 -3 -3 -3 -3 -3 -3 -3 -2
-2 -2 -2 -3 -3 -3 -3 -3 -4 -4 -3 -3 -4 -5 -5 -5 -5 -5 -5 -6 -6 -6 -6 -6 -6 -7 -7 -7 -7 -6 -5 -5 -4 -4 -4 -4 -4 -3 -3 -3 -4 -4 -3
-3 -3 -3 -3 -3 -3 -3 -4 -3 -3 -5 -4 -3 -4 -5 -6 -6 -6 -5 -6 -6 -7 -7 -6 -7 -7 -7 -8 -7 -6 -6 -5 -5 -4 -4 -4 -4 -5 -4 -5 -5 -4 -4
-4 -4 -3 -3 -4 -4 -4 -4 -4 -3 -3 -4 -3 -3 -4 -5 -6 -5 -5 -6 -6 -7 -7 -7 -7 -7 -7 -7 -8 -6 -5 -5 -5 -5 -5 -5 -5 -6 -5 -5 -5 -5 -4
-5 -4 -4 -4 -4 -4 -4 -5 -4 -4 -4 -4 -4 -5 -4 -4 -5 -5 -6 -6 -6 -7 -7 -7 -7 -7 -7 -8 -8 -6 -6 -6 -6 -6 -6 -6 -7 -6 -6 -6 -6 -6 -6
-7 -6 -6 -5 -5 -5 -5 -5 -5 -4 -4 -4 -4 -5 -5 -5 -6 -6 -6 -7 -7 -8 -8 -8 -8 -7 -8 -8 -8 -7 -6 -7 -7 -8 -8 -8 -7 -7 -7 -7 -7 -6 -7
-8 -8 -7 -7 -6 -6 -6 -5 -5 -5 -5 -5 -5 -5 -6 -7 -7 -7 -7 -8 -8 -8 -7 -7 -7 -7 -7 -8 -8 -8 -8 -8 -8 -9 -10 -9 -9 -9 -9 -9 -8 -8 -8
-10 -9 -8 -8 -7 -6 -6 -7 -7 -6 -6 -6 -5 -5 -6 -6 -7 -8 -8 -8 -8 -8 -7 -7 -6 -7 -7 -7 -7 -7 -8 -8 -9 -10 -11 -11 -10 -10 -10 -10 -10 -9 -9
-11 -10 -10 -9 -9 -8 -8 -8 -8 -8 -7 -6 -6 -6 -6 -6 -6 -7 -7 -7 -7 -7 -7 -6 -7 -7 -7 -7 -7 -8 -8 -9 -9 -10 -11 -11 -11 -11 -11 -11 -11 -11 -10
-11 -12 -11 -11 -10 -10 -10 -10 -9 -9 -8 -7 -6 -7 -6 -6 -6 -7 -7 -7 -7 -7 -7 -7 -7 -7 -8 -8 -8 -9 -9 -10 -11 -11 -11 -11 -12 -12 -12 -11 -11 -11 -11
Height
789 793 798 803 806 809 811 813 814 816 817 817 820 823 825 825 826 824 824 825 823 824 825 826 824 825 826 824 823 824 823 823 822 820 817 816 815 817 819 818 819 821 819
787 793 796 802 806 809 812 814 815 817 818 820 820 821 826 826 827 826 826 825 826 825 827 826 825 822 825 827 823 823 827 826 825 824 820 814 812 813 815 816 816 818 819
786 791 797 800 807 808 812 815 813 817 819 818 821 820 822 826 828 829 828 828 827 826 828 825 823 825 826 826 827 826 828 827 826 825 826 817 810 817 813 814 815 816 816
785 790 799 802 804 806 811 815 816 815 817 820 822 823 822 823 828 830 829 830 829 827 825 825 825 826 827 824 824 827 828 828 827 826 827 826 824 820 813 814 815 815 814
790 788 795 799 802 806 810 812 814 815 818 818 822 823 823 824 826 829 830 830 830 828 825 825 824 825 826 827 827 826 829 828 828 828 827 826 825 826 823 815 815 815 814
791 788 791 798 801 805 808 809 812 815 817 819 823 824 823 825 825 827 830 830 829 828 827 827 826 825 827 829 827 826 827 828 829 828 828 827 827 825 825 822 819 820 814
790 787 789 795 800 803 808 812 815 818 820 822 823 823 826 827 826 827 828 831 831 828 830 827 827 826 826 827 827 825 826 827 828 827 826 827 826 826 826 825 824 821 816
791 789 791 795 799 802 807 812 814 816 818 821 822 825 827 827 827 828 830 832 830 829 828 828 827 826 826 827 825 825 826 826 825 824 825 826 825 826 825 826 826 821 815
796 794 795 797 800 804 808 811 814 817 819 821 823 825 827 828 829 829 829 830 829 829 828 827 826 826 826 825 824 823 824 823 823 824 824 825 825 825 825 824 824 824 816
797 796 796 798 801 805 809 813 815 817 820 822 823 824 825 825 825 826 828 828 828 826 827 826 826 825 824 823 822 822 822 822 823 823 823 823 824 823 823 822 821 821 820
802 800 799 800 802 805 808 811 814 816 817 819 820 821 821 822 823 824 826 826 825 825 825 824 824 823 822 820 820 820 821 821 821 821 821 822 821 820 820 819 818 817 817
805 803 802 803 805 806 808 810 812 813 814 816 817 817 818 819 820 822 823 823 823 823 823 822 822 821 820 819 819 819 819 819 818 819 819 818 817 817 816 815 814 813 812
807 806 806 806 806 808 809 810 810 810 811 812 812 813 815 817 818 819 820 820 821 820 820 820 820 819 819 818 817 817 816 816 816 816 815 814 814 813 811 810 809 809 808
814 812 811 811 811 809 810 810 808 808 808 808 809 809 811 813 815 816 817 818 819 819 819 818 818 818 817 816 815 815 814 813 812 811 811 810 810 808 807 806 806 805 804
818 817 816 813 812 810 809 807 806 805 805 804 805 805 808 810 812 813 815 816 817 817 817 817 817 816 815 814 814 813 812 810 809 808 807 805 804 803 802 802 801 801 799
819 818 816 814 812 810 808 806 805 804 802 801 800 802 804 806 808 810 812 814 814 815 815 815 814 814 813 813 812 811 810 807 805 803 801 799 797 796 796 795 795 795 792
817 815 814 812 810 808 806 804 802 800 798 797 796 797 799 800 803 806 807 809 811 812 812 812 812 811 811 809 809 808 806 803 801 799 796 794 792 791 789 788 787 786 783
815 813 811 808 806 805 803 800 798 796 794 793 792 792 793 795 798 801 803 805 806 807 808 809 809 809 808 806 804 803 800 797 796 794 791 789 787 785 784 782 780 776 773
812 809 807 805 802 800 798 795 793 792 790 788 787 787 787 790 792 795 798 800 802 803 805 805 806 805 803 801 799 798 796 792 791 789 786 783 781 780 779 777 773 768 763
809 804 801 800 798 796 794 791 788 786 784 783 781 782 782 783 785 788 792 794 797 799 800 801 800 800 798 796 794 793 791 789 786 783 780 778 777 774 773 770 766 760 755
805 800 798 795 793 791 789 786 783 781 779 778 777 776 776 776 779 783 786 789 791 794 795 796 796 795 794 792 790 789 787 785 782 778 776 774 772 769 766 763 760 755 750
803 800 796 792 789 787 784 780 778 776 774 772 771 770 769 771 773 776 780 784 786 789 791 792 793 792 791 789 788 786 784 782 779 776 773 770 767 764 760 757 754 750 744
801 797 793 788 785 782 779 775 773 771 768 766 764 764 764 766 768 769 774 778 781 785 786 788 788 788 788 786 785 783 781 778 775 772 770 767 763 759 755 752 749 745 741
798 794 790 785 781 777 774 772 769 766 763 760 759 758 759 761 763 765 768 772 776 779 781 783 784 785 785 784 782 780 778 776 772 769 765 763 760 756 752 748 746 743 739
794 790 786 781 776 773 770 766 763 761 758 755 753 752 754 755 758 760 762 766 770 773 776 778 780 781 782 781 780 778 777 774 771 767 765 762 759 756 751 747 743 739 736
789 785 781 777 772 769 764 760 757 755 753 749 747 746 747 750 753 756 760 763 766 769 773 775 777 778 779 778 777 776 775 773 769 766 764 762 759 756 752 748 742 738 735
Wind_Speed
14 16 16 15 15 13 12 11 11 10 8 8 7 5 4 5 5 5 5 5 5 4 4 3 4 5 5 5 6 4 4 3 7 7 6 11 12 14 15 14 15 16 13
12 16 18 17 16 15 13 11 9 8 6 6 6 5 5 5 4 4 5 5 4 4 3 3 4 5 4 6 7 7 3 4 7 4 3 3 3 4 9 12 13 13 14
12 14 17 21 19 18 16 13 11 9 7 7 7 8 8 5 3 3 3 3 4 4 4 4 4 4 4 4 5 6 6 3 4 6 3 2 1 6 1 3 5 6 6
9 13 17 17 19 17 15 13 12 10 8 7 5 5 5 6 4 3 2 2 3 3 4 4 4 4 3 4 4 4 4 3 3 1 3 2 2 2 3 1 2 3 2
8 13 18 20 18 21 17 15 12 9 8 7 5 5 5 6 5 4 3 2 2 4 4 4 3 3 3 3 2 3 2 3 2 3 3 2 2 3 3 4 5 7 3
9 12 19 18 16 21 19 16 14 10 8 7 5 5 5 4 4 3 2 2 2 2 3 3 3 3 2 2 2 2 2 2 2 2 2 2 1 2 2 3 7 11 10
6 10 13 19 18 21 21 19 17 13 11 8 5 5 4 3 3 2 2 1 0 1 2 3 3 3 3 3 3 3 3 3 3 4 3 4 4 4 5 7 10 8 9
5 5 11 14 18 20 20 19 17 13 11 9 7 5 4 2 2 1 1 1 1 1 2 2 3 3 3 4 4 4 4 5 4 5 5 6 6 6 6 7 8 6 9
7 2 7 12 14 16 19 19 17 13 12 11 9 7 5 4 3 2 2 1 1 1 2 3 3 3 3 3 4 4 5 5 6 6 7 7 8 8 8 8 8 8 4
10 5 3 8 12 13 14 14 14 12 11 11 10 9 7 5 4 3 3 2 2 2 3 3 4 4 4 4 4 4 5 5 6 7 7 8 8 8 9 9 10 12 14
9 7 5 5 9 12 13 12 12 12 12 12 12 11 9 8 6 4 4 3 3 3 3 4 5 5 5 5 5 6 7 8 8 8 9 10 10 10 9 10 12 14 16
10 6 7 6 5 7 9 11 11 14 14 14 14 14 13 11 9 7 5 5 4 4 4 4 5 5 6 6 6 7 8 9 10 10 11 12 11 12 12 13 15 16 18
12 11 11 9 6 3 1 5 10 12 13 16 17 17 17 15 13 10 8 6 5 4 4 4 5 6 7 7 8 9 9 10 11 12 13 14 14 15 15 16 17 18 19
10 11 11 12 9 9 7 5 7 10 13 16 19 20 20 19 16 13 11 9 7 6 5 5 6 7 8 8 9 9 10 11 12 13 15 16 17 17 17 19 19 20 23
11 10 10 13 12 11 12 13 10 10 11 15 18 22 21 20 18 16 13 10 8 7 6 6 6 7 8 8 8 10 12 13 14 15 16 18 19 19 21 22 22 22 24
9 9 9 12 13 13 13 14 13 13 12 14 19 20 21 22 21 18 15 13 10 8 7 6 6 7 7 8 11 12 14 14 15 16 17 17 19 21 23 25 27 29 30
11 12 11 13 13 15 15 16 17 16 14 14 15 18 21 23 23 20 17 15 12 9 7 6 6 7 8 9 10 12 13 15 16 16 17 17 18 19 21 23 26 28 31
16 15 15 16 16 16 16 17 16 16 16 15 15 17 21 25 24 22 20 16 13 10 8 7 7 8 9 9 11 12 13 13 14 16 17 19 20 21 22 24 26 28 30
23 22 18 17 17 18 18 17 16 15 14 16 17 17 21 25 27 25 22 18 14 12 10 8 7 8 9 9 11 11 12 13 15 17 17 18 20 20 21 23 25 28 31
24 23 19 19 18 18 19 18 18 16 17 16 19 18 19 25 28 28 24 19 16 13 11 9 8 8 9 11 10 11 11 13 16 17 16 16 18 19 20 22 24 26 29
22 18 18 20 19 18 19 19 19 18 18 18 17 17 19 23 28 28 24 21 17 14 12 10 8 8 9 10 9 9 12 12 15 16 17 16 15 18 20 20 21 23 29
21 21 21 21 21 20 20 19 19 19 18 17 17 16 19 21 24 28 26 21 18 16 12 9 8 7 7 6 7 9 10 11 12 15 16 16 16 17 17 16 17 22 24
21 20 20 21 21 21 20 21 21 20 19 17 18 18 17 19 19 25 27 21 18 14 11 9 8 7 6 6 7 7 9 8 10 10 13 13 13 13 12 14 17 18 18
21 20 20 21 21 20 18 21 22 21 19 18 17 16 17 18 20 19 21 19 16 15 13 10 9 7 6 6 6 7 7 8 7 9 7 8 10 10 12 14 15 16 17
20 20 20 21 21 19 22 20 20 19 20 18 17 15 17 19 19 20 21 20 17 17 14 11 8 6 5 5 6 6 5 7 5 5 7 10 12 13 15 16 18 18 20
19 20 20 21 21 22 22 21 18 18 19 18 17 16 17 19 19 19 16 16 14 16 14 9 8 6 6 5 4 3 2 5 4 5 8 10 12 14 16 18 21 21 22
Wind_Direction
187 181 174 169 164 164 159 158 150 150 143 136 131 120 115 102 82 82 78 56 67 65 54 52 45 35 33 25 17 352 356 344 334 311 283 271 254 249 249 251 253 255 255
182 181 177 175 176 171 169 163 156 155 155 151 143 135 135 117 106 84 66 65 52 62 55 53 51 53 37 21 29 27 350 0 3 342 306 296 212 240 250 247 247 256 256
202 187 179 181 178 177 175 169 155 149 144 137 129 122 119 117 109 75 55 45 60 61 50 53 54 42 56 51 32 26 20 1 16 32 346 274 283 330 274 229 233 248 253
224 200 184 185 182 177 170 165 159 148 142 143 145 160 150 150 145 123 82 57 47 55 61 49 43 40 36 41 35 17 18 8 6 350 19 358 334 335 304 273 238 318 270
267 212 194 188 181 179 170 168 159 148 150 137 128 124 118 121 129 127 120 93 61 54 44 40 45 40 31 19 21 23 5 12 356 353 339 346 314 282 279 294 316 322 282
285 229 203 183 170 182 177 173 170 164 157 142 128 115 114 117 123 106 104 71 40 35 25 23 34 40 22 342 341 336 332 318 298 292 292 285 296 322 307 289 309 307 294
305 218 194 182 169 175 180 179 174 169 167 158 141 122 113 113 107 102 74 52 71 21 347 10 6 354 337 323 314 310 301 292 286 285 283 274 266 271 276 281 283 281 302
10 190 189 187 180 173 177 179 180 177 177 174 167 159 147 134 127 127 151 259 340 338 336 341 335 330 319 304 299 293 288 289 288 285 278 277 271 263 260 262 291 294 263
11 137 176 181 174 177 181 184 184 187 190 192 193 191 185 177 175 183 209 228 264 295 306 321 319 313 304 299 295 284 284 287 284 273 268 264 262 258 254 250 250 259 291
18 33 138 167 167 175 186 192 198 203 207 209 209 210 211 209 209 220 229 247 268 297 305 310 312 311 306 303 299 288 284 282 276 272 267 262 260 259 256 253 250 248 254
8 23 67 137 159 177 194 206 217 225 231 229 228 227 226 223 224 227 237 249 272 294 302 308 312 312 312 308 301 288 282 278 275 271 270 267 266 263 261 259 255 253 252
23 29 48 81 130 169 194 216 234 244 247 245 240 238 234 232 233 234 241 252 261 283 295 303 307 310 307 303 294 288 281 280 277 272 267 268 267 265 262 261 261 262 263
20 36 48 45 49 51 300 270 256 263 260 250 241 237 234 232 233 235 243 251 261 275 289 296 304 307 306 302 293 287 283 276 272 270 268 267 267 265 263 265 266 268 269
31 22 26 31 35 40 2 319 293 274 262 252 242 238 233 231 230 232 236 242 250 262 275 285 297 301 303 298 293 288 286 281 275 272 267 265 264 265 267 269 269 271 272
12 4 355 350 347 342 338 340 328 315 284 257 243 237 235 231 227 228 229 235 240 250 261 278 286 296 298 294 290 292 287 281 277 272 269 266 265 265 266 268 269 270 271
358 352 340 331 330 327 322 318 314 306 291 265 250 242 233 226 224 224 225 229 233 242 251 267 282 293 291 284 292 289 284 279 276 275 274 274 273 270 269 267 267 268 272
338 335 327 321 313 316 313 304 301 303 287 277 263 246 232 224 223 221 221 226 229 236 243 255 272 291 296 298 296 290 284 280 276 275 277 279 276 275 276 276 275 273 270
318 316 308 311 310 308 306 302 297 290 284 273 263 248 233 227 223 219 220 223 227 231 233 244 270 293 305 305 304 299 290 280 279 279 280 279 281 280 281 284 282 278 275
306 299 293 299 304 303 307 302 295 283 272 266 264 254 239 228 222 219 218 220 222 223 223 236 263 291 308 314 309 305 293 286 287 285 283 283 284 283 286 288 287 285 282
305 295 290 296 298 300 305 297 292 286 274 262 263 261 248 234 227 223 219 219 221 221 221 242 267 295 307 314 312 307 297 296 295 293 289 288 288 291 293 293 292 290 292
321 307 296 296 297 300 303 291 290 284 280 272 262 255 250 236 229 224 217 217 215 214 225 244 262 289 312 316 313 306 308 303 300 300 296 294 294 301 302 303 299 296 300
313 306 299 295 297 299 298 290 288 290 287 277 261 247 244 232 221 219 214 211 210 211 222 234 254 269 298 304 309 307 310 308 306 300 297 298 304 309 310 312 313 312 310
312 308 303 298 295 293 292 289 293 292 290 278 261 249 234 224 211 206 206 202 203 205 216 230 248 272 292 302 312 312 321 316 315 304 303 304 310 317 325 330 327 329 327
309 309 309 302 296 293 292 290 292 289 284 274 261 245 228 216 207 203 200 197 199 203 214 225 237 259 284 301 318 322 320 325 329 326 344 343 342 344 339 339 339 336 332
307 309 306 302 297 298 297 291 290 287 279 270 258 238 228 216 204 202 198 200 205 202 207 217 223 240 261 289 322 325 318 338 335 355 11 11 8 359 355 349 343 338 337
311 309 307 305 301 302 298 296 292 282 276 265 250 234 222 213 203 198 193 201 203 202 206 213 216 227 248 291 320 321 350 357 22 39 26 14 6 360 353 349 343 344 333